Home   Weather   Chicago   Past weeks

Flag for USA Past Weather in Chicago, Illinois, USA — Yesterday and Last 2 Weeks

Now
21 °F

Light snow. Overcast.


Feels Like: 6 °F
Forecast: 21 / 27 °F
Wind: 20 mph from West

Location: Chicago Midway Airport

Current Time: Dec 8, 2016 at 4:09:39 pm

Latest Report: Dec 8, 2016 at 2:53 pm


Visibility: 10 mi

Pressure: 30.38 "Hg

Humidity: 65%

Dew Point: 11 °F

Location of ChicagoLocation

Past Weather in Chicago — Graph

°F

Chicago Temperature Yesterday

Maximum temperature yesterday: 30 °F (at 12:53 pm)
Minimum temperature yesterday: 24 °F (at 7:53 pm)
Average temperature yesterday: 27 °F

High & Low Weather Summary for the Past Weeks

 TemperatureHumidityPressure
High57 °F (Nov 29, 12:53 pm)100% (Nov 28, 2:53 pm)30.39 "Hg (Nov 28, 2:53 pm)
Low18 °F (Dec 8, 7:53 am)53% (Nov 29, 12:53 pm)29.17 "Hg (Nov 28, 7:53 pm)
Average38 °F75%30.00 "Hg
* Reported Nov 23 2:53 pm — Dec 8 2:53 pm, Chicago, Weather by CustomWeather, © 2016

Note: Actual official high and low records may vary slightly from our data, if they occured in-between our weather recording intervals... More about our weather records

Advertising

Chicago Weather History for the Previous 24 Hours

Scroll right to see more
 ConditionsComfort  
Time TempWeatherWind HumidityBarometerVisibility
2:53 pm
Thu, Dec 8
21 °FLight snow. Overcast.20 mph65%30.38 "Hg10 mi
1:53 pm21 °FLight snow. Overcast.15 mph65%30.37 "Hg10 mi
12:53 pm20 °FLight snow. Overcast.20 mph65%30.35 "Hg10 mi
11:53 am20 °FLight snow. Overcast.16 mph65%30.34 "Hg10 mi
10:53 am19 °FLight snow. Overcast.15 mph65%30.34 "Hg10 mi
9:53 am19 °FLight snow. Overcast.17 mph65%30.34 "Hg10 mi
8:53 am18 °FLight snow. Overcast.16 mph65%30.32 "Hg9 mi
7:53 am18 °FLight snow. Overcast.20 mph65%30.29 "Hg9 mi
6:53 am21 °FLight snow. Overcast.16 mph65%30.26 "Hg9 mi
5:53 am22 °FLight snow. Ice fog.22 mph66%30.25 "Hg6 mi
4:53 am22 °FLight snow. Overcast.17 mph62%30.23 "Hg9 mi
3:53 am23 °FLight snow. Overcast.14 mph63%30.22 "Hg10 mi
2:53 am24 °FLight snow. Overcast.20 mph62%30.21 "Hg9 mi
1:53 am24 °FLight snow. Overcast.17 mph62%30.22 "Hg10 mi
12:53 am25 °FLight snow. Overcast.17 mph60%30.20 "Hg10 mi
11:53 pm
Wed, Dec 7
25 °FLight snow. Overcast.18 mph60%30.20 "Hg10 mi
10:53 pm25 °FLight snow. Overcast.17 mph60%30.20 "Hg10 mi
9:53 pm24 °FOvercast.16 mph62%30.20 "Hg10 mi
8:53 pm24 °FOvercast.15 mph65%30.20 "Hg10 mi
7:53 pm24 °FPassing clouds.22 mph65%30.19 "Hg10 mi
6:53 pm26 °FPassing clouds.16 mph66%30.18 "Hg10 mi
5:53 pm26 °FPartly cloudy.17 mph66%30.17 "Hg10 mi
4:53 pm27 °FOvercast.18 mph66%30.17 "Hg10 mi
Weather by CustomWeather, © 2016

See weather overviewHow to use our weather pages